Location: Losili
(4.4086°N, 32.7049°E)
Time: 08:36:54
(UTC+00:00)

GPS 2-18 Rocket1 - Pass Details

Date: 18 September 2019
Orbit: 460 x 518 km, 20.9° (Epoch: 13 October)

Event Time Altitude Azimuth Distance (km) Brightness Sun altitude
Rises 16:55:37 0° 282° (WNW) 2,511 8.3 -17.9°
Reaches altitude 10° 16:57:54 10° 275° (W) 1,624 7.0 -18.4°
Maximum altitude 17:01:29 44° 203° (SSW) 655 3.8 -19.3°
Enters shadow 17:02:23 36° 163° (SSE) 755 3.8 -19.5°
